Regional Weather Roundup
Issued by NWS Midland/Odessa, TX

Skip options and go directly to product.
Home | Oldest Version | Next Version | Current Version | All | Text Only | Save Text | Print | Product List | Glossary On

Skip product version selection by date and time.   
196
ASUS44 KMAF 311301
RWRMAF
MIDLAND AREA WEATHER ROUNDUP
NATIONAL WEATHER SERVICE MIDLAND TX
700 AM CST SAT JAN 31 2015

...IN SOUTHWEST TEXAS AND SOUTHEAST NEW MEXICO...

CITY           SKY/WX    TMP DP  RH WIND       PRES   REMARKS
ALPINE         CLOUDY    44  43  97 S7        30.00F
ANDREWS        RAIN      39  39 100 SE10      30.00F WCI  33
ARTESIA        FOG       39  39 100 CALM      29.98F VSB 3/4
BIG SPRING     CLOUDY    42  39  91 NE3       30.08S
CARLSBAD       CLOUDY    41  38  89 N5        29.96F FOG     WCI  38
DRYDEN           N/A     47  46  97 E8        30.01F
FORT STOCKTON  CLOUDY    46  44  93 SE13      29.96F
GUAD PASS      CLOUDY    37  37 100 E5        29.95R WCI  33
HOBBS          LGT RAIN  37  37 100 E6        29.99R WCI  33
MARFA          CLOUDY    45  43  93 SE12      29.97S WCI  39
MIDLAND AIRPK  LGT RAIN  43  43 100 E6        30.02F WCI  39
MIDLAND INTL   RAIN      43  42  97 E13       29.99F FOG     WCI  36
ODESSA         LGT RAIN  42  41  96 SE9       29.99F FOG     WCI  37
PECOS          CLOUDY    45  44  96 CALM      29.98S FOG
PRESIDIO       FAIR      50  50  99 SW6       29.94R
SEMINOLE       RAIN      38  38  99 SE12      30.00F WCI  31
SNYDER         HVY RAIN N/A N/A N/A CALM      30.08R
WINK           CLOUDY    46  42  86 SE13      29.97R
$$
...OTHER STATIONS IN TEXAS...

CITY           SKY/WX    TMP DP  RH WIND       PRES   REMARKS
ABILENE        CLOUDY    47  35  63 SE14      30.08F
AMARILLO       LGT RAIN  33  32  96 SE8       30.04S FOG     WCI  26
AUSTIN         CLOUDY    49  42  77 E5        30.15S
BROWNSVILLE    MOCLDY    62  61  96 E7        30.07S
CORPUS CHRISTI CLOUDY    61  59  93 E6        30.09S
DALLAS FTW     CLOUDY    47  31  53 SE12      30.20S
DEL RIO        LGT RAIN  50  49  96 S7        30.08R FOG
EL PASO        CLOUDY    45  41  86 N5        29.89F
HOUSTON INT    MOCLDY    42  37  82 NE7       30.22R WCI  38
LUBBOCK        LGT RAIN  36  35  96 SE13      30.01F FOG     WCI  27
SAN ANGELO     RAIN      49  44  83 SE7       30.05S
SAN ANTONIO    LGT RAIN  51  48  89 E10       30.13S
WACO           CLOUDY    46  34  62 SE12      30.19F
WICHITA FALLS  NOT AVBL
$$
...OTHER LOCATIONS IN NEW MEXICO...

CITY           SKY/WX    TMP DP  RH WIND       PRES   REMARKS
ALAMAGORDO     LGT RAIN  41  41 100 N5        29.91F WCI  38
ALBUQUERQUE    LGT RAIN  33  33 100 NW5       29.93R WCI  29
CANNON AFB     NOT AVBL
CLOVIS         CLOUDY    34  30  86 SE7       30.00S WCI  28
HOLLOMAN AFB   CLOUDY    41  41 100 NE1       29.91R
ROSWELL        CLOUDY    38  37  97 CALM      29.98F FOG
RUIDOSO        FOG       28  28 100 SE6       29.94F VSB 1/4 WCI  22
SANTA FE       LGT SNOW  29  27  92 S6        29.93R FOG     WCI  23
TRUTH OR CONSE CLOUDY    40  40 100 CALM      29.89F
TUCUMCARI      CLOUDY    36  34  92 S3        29.98S
$$

USA.gov is the U.S. government's official web portal to all federal, state and local government web resources and services.